Regional Weather Roundup
Issued by NWS Goodland, KS

Home | Current Version | Previous Version | Graphics & Text | Print | Product List | Glossary On
Versions: 1 2 3 4 5 6 7 8 9 10 11 12 13 14 15 16 17 18 19 20 21 22 23 24 25 26 27 28 29 30 31 32 33 34 35 36 37 38 39 40 41 42 43 44 45 46 47 48 49 50
000
ASUS43 KGLD 281808
RWRGLD

GOODLAND FORECAST AREA HOURLY WEATHER ROUNDUP
NATIONAL WEATHER SERVICE GOODLAND KS
1100 AM MST FRI NOV 28 2014

...OFFICIAL OBSERVATIONS...

CITY           SKY/WX    TMP DP  RH WIND       PRES   REMARKS
GOODLAND KS    SUNNY     73  19  13 W7        29.86F
HILL CITY KS   SUNNY     71  26  18 SW12      29.83F
IMPERIAL NEB   SUNNY     72  20  14 W20       29.82F
MCCOOK NEB     SUNNY     70  23  17 SW15      29.80F
AKRON CO       CLOUDY    57  24  28 W10       29.91F
BURLINGTON CO  MOSUNNY   73  15  11 W9        29.89F
LIMON CO       PTSUNNY   69   9   9 W9        29.94F
$$

...UNOFFICIAL OBSERVATIONS...

CITY           SKY/WX    TMP DP  RH WIND       PRES   REMARKS
COLBY KS       SUNNY     70  30  23 SW7       29.84F
NORTON KS      SUNNY     73  18  12 SW15G21   29.79F
SHARON SPRINGS   N/A     76  20  12 W9G17       N/A
TRIBUNE KS     SUNNY     70  34  26 W15       29.91F
TRENTON NEB      N/A     59  32  36 SW8         N/A
YUMA CO          N/A     62  27  26 SW10        N/A
$$


USA.gov is the U.S. government's official web portal to all federal, state and local government web resources and services.